Simultaneous Nadir Overpasses (SNOs) Predictions

Prediction of SNOs between AQUA and GOES-15 Satellite Orbit:

Table of predicted SNOs for the next 14.0 days since TLE Epoch: 9/11/2020
Index Date Time (AQUA) AQUA Lat,Lon GOES-15 Lat,Lon Distance(km) Time Diff (sec)
1 09/11/2020 22:04:19 0.29,-127.20 0.09,-128.09 102.00 80
2 09/12/2020 10:25:34 0.80,-132.35 -0.10,-128.14 478.53 80
3 09/13/2020 21:52:08 0.95,-124.25 0.10,-128.14 442.83 80
4 09/14/2020 10:13:23 0.15,-129.40 -0.10,-128.19 137.80 80
5 09/16/2020 10:01:12 -0.50,-126.45 -0.11,-128.23 202.62 80
6 09/16/2020 22:22:35 -0.64,-131.64 0.11,-128.20 391.12 80
7 09/18/2020 22:10:24 0.02,-128.69 0.11,-128.24 51.05 80
8 09/20/2020 21:58:13 0.62,-125.73 0.11,-128.27 288.51 80
9 09/21/2020 10:19:28 0.42,-130.89 -0.11,-128.32 292.96 80
10 09/23/2020 10:07:16 -0.18,-127.93 -0.11,-128.34 45.77 80
11 09/25/2020 09:55:05 -0.85,-124.99 -0.12,-128.36 383.88 80
